Date String (YYYY-MM-DD hh:mm:ss) UTC,Instrument flags,Ambient pressure (hPa),Sample flow (lpm),Bypass flow (lpm),Sample temperature (°C),Ambient temperature (°C),ASC tube jacket temperature (°C),LED temperature (°C),Box temperature (°C),Sample RH (%),Span deviation,Mass concentration (μg/m³),Mass concentration (μg/m³),Mass concentration (μg/m³)
DateTimeUTC,F1_M11,P_M11,Q1_M11,Q2_M11,T1_M11,T2_M11,T3_M11,T4_M11,T5_M11,U1_M11,ZSPAN_M11,X0_M11,X2_M11,X1_M11
2023-05-06 09:00:00,,0825.0,5.00,0.00,28.3,26.4,00.0,36.8,29.6,10.0,0000.0,0008.41,0003.42,0001.96
2023-05-06 09:01:00,,0825.0,5.00,0.00,28.3,26.4,00.0,36.7,29.6,10.0,0000.0,0008.27,0003.36,0001.94
2023-05-06 09:02:00,,0825.0,5.00,0.00,28.3,26.4,00.0,36.7,29.6,09.8,0000.0,0008.51,0003.35,0001.91
2023-05-06 09:03:00,,0825.0,4.99,0.00,28.3,26.3,00.0,36.7,29.6,09.7,0000.0,0008.67,0003.28,0001.87
2023-05-06 09:04:00,,0825.0,5.00,0.00,28.3,26.3,00.0,36.7,29.6,09.7,0000.0,0008.63,0003.28,0001.87
2023-05-06 09:05:00,,0825.0,5.00,0.00,28.2,26.3,00.0,36.7,29.5,09.7,0000.0,0008.62,0003.28,0001.85
2023-05-06 09:06:00,,0825.0,5.00,0.00,28.2,26.3,00.0,36.7,29.5,09.6,0000.0,0008.65,0003.30,0001.85
2023-05-06 09:07:00,,0824.9,5.00,0.00,28.2,26.3,00.0,36.7,29.5,09.6,0000.0,0008.53,0003.26,0001.85
2023-05-06 09:08:00,,0825.0,5.00,0.00,28.2,26.3,00.0,36.7,29.5,09.5,0000.0,0008.52,0003.25,0001.84
2023-05-06 09:09:00,,0824.9,5.00,0.00,28.2,26.3,00.0,36.7,29.5,09.5,0000.0,0008.28,0003.29,0001.84
2023-05-06 09:10:00,,0824.9,5.00,0.00,28.2,26.3,00.0,36.6,29.5,09.5,0000.0,0007.83,0003.30,0001.83
2023-05-06 09:11:00,,0824.9,5.00,0.00,28.2,26.3,00.0,36.6,29.5,09.5,0000.0,0008.04,0003.33,0001.85
2023-05-06 09:12:00,,0825.0,5.00,0.00,28.2,26.3,00.0,36.6,29.5,09.5,0000.0,0008.10,0003.35,0001.85
2023-05-06 09:13:00,,0825.0,5.01,0.00,28.2,26.3,00.0,36.6,29.5,09.5,0000.0,0008.20,0003.35,0001.85
2023-05-06 09:14:00,,0825.0,5.00,0.00,28.2,26.3,00.0,36.6,29.5,09.5,0000.0,0007.99,0003.41,0001.84
2023-05-06 09:15:00,,0825.0,5.00,0.00,28.2,26.2,00.0,36.6,29.5,09.4,0000.0,0008.32,0003.42,0001.85
2023-05-06 09:16:00,,0825.0,5.01,0.00,28.1,26.3,00.0,36.6,29.5,09.4,0000.0,0008.92,0003.41,0001.86
2023-05-06 09:17:00,,0825.0,5.00,0.00,28.1,26.3,00.0,36.6,29.5,09.4,0000.0,0009.21,0003.43,0001.86
2023-05-06 09:18:00,,0825.0,5.00,0.00,28.1,26.3,00.0,36.6,29.5,09.4,0000.0,0009.36,0003.44,0001.83
2023-05-06 09:19:00,,0825.0,5.00,0.00,28.1,26.3,00.0,36.5,29.5,09.4,0000.0,0009.41,0003.47,0001.85
2023-05-06 09:20:00,,0825.0,5.00,0.00,28.1,26.3,00.0,36.5,29.5,09.4,0000.0,0009.51,0003.47,0001.85
2023-05-06 09:21:00,,0825.0,4.99,0.00,28.1,26.3,00.0,36.5,29.4,09.5,0000.0,0009.45,0003.48,0001.85
2023-05-06 09:22:00,,0825.1,5.00,0.00,28.1,26.3,00.0,36.5,29.5,09.4,0000.0,0009.28,0003.48,0001.83
2023-05-06 09:23:00,,0825.1,4.99,0.00,28.1,26.2,00.0,36.5,29.4,09.4,0000.0,0009.25,0003.48,0001.82
2023-05-06 09:24:00,,0825.1,5.00,0.00,28.1,26.2,00.0,36.5,29.4,09.4,0000.0,0009.02,0003.46,0001.80
2023-05-06 09:25:00,,0825.1,5.01,0.00,28.1,26.2,00.0,36.5,29.4,09.4,0000.0,0008.86,0003.45,0001.83
2023-05-06 09:26:00,,0825.1,5.01,0.00,28.1,26.2,00.0,36.5,29.4,09.5,0000.0,0008.93,0003.45,0001.83
2023-05-06 09:27:00,,0825.1,4.99,0.00,28.1,26.2,00.0,36.5,29.4,09.5,0000.0,0008.55,0003.51,0001.85
2023-05-06 09:28:00,,0825.1,4.99,0.00,28.1,26.2,00.0,36.5,29.4,09.5,0000.0,0008.44,0003.52,0001.85
2023-05-06 09:29:00,,0825.1,5.01,0.00,28.0,26.2,00.0,36.5,29.4,09.5,0000.0,0008.78,0003.51,0001.86
2023-05-06 09:30:00,,0825.1,5.01,0.00,28.0,26.2,00.0,36.5,29.4,09.5,0000.0,0008.76,0003.52,0001.85
2023-05-06 09:31:00,,0825.1,5.00,0.00,28.0,26.2,00.0,36.4,29.4,09.5,0000.0,0008.66,0003.49,0001.84
2023-05-06 09:32:00,,0825.1,4.99,0.00,28.0,26.2,00.0,36.4,29.4,09.5,0000.0,0008.56,0003.48,0001.84
2023-05-06 09:33:00,,0825.1,4.99,0.00,28.0,26.2,00.0,36.4,29.4,09.7,0000.0,0008.49,0003.46,0001.86
2023-05-06 09:34:00,,0825.1,5.00,0.00,28.0,26.2,00.0,36.4,29.3,09.7,0000.0,0008.53,0003.45,0001.87
2023-05-06 09:35:00,,0825.1,5.02,0.00,28.0,26.1,00.0,36.4,29.3,09.7,0000.0,0008.51,0003.46,0001.88
2023-05-06 09:36:00,,0825.2,4.98,0.00,28.0,26.1,00.0,36.4,29.3,09.6,0000.0,0008.44,0003.46,0001.89
2023-05-06 09:37:00,,0825.2,4.99,0.00,28.0,26.1,00.0,36.4,29.3,09.6,0000.0,0008.24,0003.44,0001.88
2023-05-06 09:38:00,,0825.2,5.01,0.00,28.0,26.1,00.0,36.4,29.3,09.6,0000.0,0008.04,0003.43,0001.88
2023-05-06 09:39:00,,0825.2,5.00,0.00,28.0,26.1,00.0,36.4,29.3,09.6,0000.0,0008.44,0003.41,0001.89
2023-05-06 09:40:00,,0825.2,4.98,0.00,27.9,26.1,00.0,36.4,29.3,09.6,0000.0,0008.08,0003.40,0001.88
2023-05-06 09:41:00,,0825.3,4.99,0.00,27.9,26.1,00.0,36.4,29.3,09.6,0000.0,0008.06,0003.41,0001.90
2023-05-06 09:42:00,,0825.2,5.02,0.00,27.9,26.0,00.0,36.3,29.3,09.6,0000.0,0007.96,0003.40,0001.90
2023-05-06 09:43:00,,0825.2,5.00,0.00,27.9,26.0,00.0,36.3,29.2,09.6,0000.0,0008.23,0003.47,0001.91
2023-05-06 09:44:00,,0825.3,4.98,0.00,27.9,26.0,00.0,36.3,29.2,09.6,0000.0,0008.33,0003.49,0001.91
2023-05-06 09:45:00,,0825.2,5.01,0.00,27.9,26.0,00.0,36.3,29.2,09.6,0000.0,0008.42,0003.51,0001.90
2023-05-06 09:46:00,,0825.3,5.01,0.00,27.9,26.0,00.0,36.3,29.2,09.6,0000.0,0008.58,0003.54,0001.89
2023-05-06 09:47:00,,0825.3,5.00,0.00,27.9,26.0,00.0,36.3,29.2,09.6,0000.0,0008.68,0003.55,0001.89
2023-05-06 09:48:00,,0825.3,5.01,0.00,27.9,26.0,00.0,36.3,29.2,09.6,0000.0,0008.81,0003.59,0001.88
2023-05-06 09:49:00,,0825.2,5.00,0.00,27.9,26.0,00.0,36.3,29.2,09.7,0000.0,0008.78,0003.56,0001.87
2023-05-06 09:50:00,,0825.2,5.00,0.00,27.8,26.0,00.0,36.3,29.2,09.7,0000.0,0008.32,0003.53,0001.84
2023-05-06 09:51:00,,0825.2,4.99,0.00,27.8,25.9,00.0,36.3,29.2,09.6,0000.0,0008.22,0003.54,0001.85
2023-05-06 09:52:00,,0825.3,5.00,0.00,27.8,25.9,00.0,36.2,29.2,09.6,0000.0,0008.18,0003.53,0001.83
2023-05-06 09:53:00,,0825.2,4.99,0.00,27.8,25.9,00.0,36.2,29.2,09.6,0000.0,0008.20,0003.54,0001.82
2023-05-06 09:54:00,,0825.2,5.01,0.00,27.8,25.9,00.0,36.2,29.2,09.6,0000.0,0008.13,0003.50,0001.81
2023-05-06 09:55:00,,0825.3,5.01,0.00,27.8,25.8,00.0,36.2,29.1,09.6,0000.0,0007.94,0003.44,0001.79
2023-05-06 09:56:00,,0825.3,5.01,0.00,27.8,25.8,00.0,36.2,29.1,09.6,0000.0,0008.02,0003.48,0001.81
2023-05-06 09:57:00,,0825.2,5.00,0.00,27.8,25.8,00.0,36.2,29.1,09.6,0000.0,0007.95,0003.45,0001.83
2023-05-06 09:58:00,,0825.2,4.99,0.00,27.7,25.8,00.0,36.2,29.1,09.6,0000.0,0007.78,0003.41,0001.83
2023-05-06 09:59:00,,0825.2,5.00,0.00,27.7,25.8,00.0,36.2,29.1,09.6,0000.0,0007.87,0003.37,0001.83
